• Join FlightAware (Why Join?)
  • Login
  • US Flag 
02:14PM EDT


 

Airport Tracker/Info


-or-


 

Live Flight TrackerFlight Track Log ✈ SWA472 ✈ 02-Aug-2013 ✈ KCLE - KBWI

Flight Track Log - Related Links

Times and Time Zones

All times are in EDT time to prevent confusion due to time zone crossing. See the SWA472 flight status page for this flight to view local times or setup timezone preferences in your user account.

Time Position Orientation Groundspeed Altitude Reporting Facility
EDT Latitude Longitude Course Direction KTS MPH feet Rate Location/Type
02:31PM 41.3481 -81.8831 199° South 202 232 3,200  Level Cleveland Center
02:32PM 41.3219 -81.7969 112° Southeast 259 298 5,100 2,220 Climbing Cleveland Center
02:33PM 41.3378 -81.6811 80° East 295 339 8,200 2,700 Climbing Cleveland Center
02:34PM 41.3114 -81.5839 110° East 295 339 10,600 1,920 Climbing Cleveland Center
02:35PM 41.2519 -81.4753 126° Southeast 328 377 12,100 1,800 Climbing Cleveland Center
02:36PM 41.1861 -81.3583 127° Southeast 372 428 14,200 2,160 Climbing Cleveland Center
02:37PM 41.0864 -81.2856 151° Southeast 400 460 16,500 2,400 Climbing Cleveland Center
02:38PM 40.9761 -81.2378 162° South 408 470 19,000 2,400 Climbing Cleveland Center
02:39PM 40.8556 -81.1842 161° South 418 481 21,400 2,100 Climbing Cleveland Center
02:40PM 40.7475 -81.1367 162° South 418 481 23,300 1,260 Climbing Cleveland Center
02:41PM 40.6331 -81.0783 159° South 423 487 24,000 300 Climbing Cleveland Center
02:42PM 40.5481 -80.9739 137° Southeast 430 495 24,000 300 Level Cleveland Center
02:43PM 40.4567 -80.8422 132° Southeast 458 527 24,700 480 Climbing Cleveland Center
02:44PM 40.3631 -80.7111 133° Southeast 480 552 25,000 120 Climbing Cleveland Center
02:45PM 40.2569 -80.5667 134° Southeast 492 566 25,000  Level Cleveland Center
02:46PM 40.1631 -80.4392 134° Southeast 497 572 25,000  Level Cleveland Center
02:47PM 40.0981 -80.2819 118° Southeast 490 564 25,000  Level Cleveland Center
02:48PM 40.0411 -80.1222 115° Southeast 489 563 25,000 -240 Level Cleveland Center
02:51PM 39.9047 -79.7461 115° Southeast 496 571 24,300 -300 Descending Washington Center
02:52PM 39.8456 -79.5858 116° Southeast 496 571 24,000 -180 Descending Washington Center
02:53PM 39.7861 -79.4233 115° Southeast 496 571 24,000  Level Washington Center
02:54PM 39.7267 -79.2636 116° Southeast 496 571 24,000  Level Washington Center
02:55PM 39.6667 -79.1014 116° Southeast 496 571 24,000  Level Washington Center
02:56PM 39.6372 -78.9653 106° East 491 565 24,000 -240 Level Washington Center
02:57PM 39.5928 -78.7692 106° East 499 574 23,600 -900 Descending Washington Center
02:58PM 39.5533 -78.6006 107° East 499 574 22,300 -1,980 Descending Washington Center
02:59PM 39.5178 -78.4325 105° East 493 567 19,700 -2,520 Descending Washington Center
03:00PM 39.4817 -78.2778 107° East 479 551 17,200 -2,340 Descending Washington Center
03:01PM 39.4517 -78.1261 104° East 449 517 15,000 -1,140 Descending Washington Center
03:02PM 39.4444 -77.9619 93° East 427 491 15,000  Level Washington Center
03:03PM 39.4453 -77.8142 90° East 416 479 15,000  Level Washington Center
03:04PM 39.4458 -77.6689 90° East 409 471 15,000 -600 Level Washington Center
03:05PM 39.4456 -77.5614 90° East 398 458 13,900 -1,620 Descending Washington Center
03:06PM 39.4433 -77.4244 91° East 380 437 11,800 -1,500 Descending Washington Center
03:07PM 39.4667 -77.2667 79° East 375 432 11,000 -420 Descending Potomac TRACON
03:08PM 39.4833 -77.1333 81° East 374 430 11,000 -180 Level Potomac TRACON
03:09PM 39.4833 -76.9833 90° East 342 394 10,700 -720 Descending Potomac TRACON
03:10PM 39.4833 -76.8833 90° East 299 344 9,600 -1,500 Descending Potomac TRACON
03:11PM 39.4833 -76.7833 90° East 299 344 7,700 -1,740 Descending Potomac TRACON
03:12PM 39.4833 -76.6833 90° East 303 349 6,300 -1,440 Descending Potomac TRACON
03:13PM 39.4333 -76.6000 128° Southeast 277 319 5,000 -1,200 Descending Potomac TRACON
03:14PM 39.3833 -76.5500 142° Southeast 269 310 4,000 -540 Descending Potomac TRACON
03:15PM 39.3167 -76.5167 159° South 259 298 4,000 -600 Level Potomac TRACON
03:16PM 39.2500 -76.5000 169° South 248 285 2,900 -1,020 Descending Potomac TRACON
03:17PM 39.1667 -76.5167 189° South 243 280 2,000 -540 Descending Potomac TRACON
03:18PM 39.1333 -76.5500 218° Southwest 197 227 1,900 -360 Descending Potomac TRACON
03:19PM 39.1167 -76.6167 252° West 157 181 1,300 -720 Descending Potomac TRACON
03:20PM 39.1500 -76.6500 322° Northwest 142 163 500 -840 Descending Potomac TRACON
03:22PM 39.1667 -76.6667 207° Southwest  Level FlightAware Approximate
03:29PM 39.1754 -76.6683 207° Southwest  Level Estimated